Content
SEND FEEDBACK

Daily
Averages
Monthly
Summary
Australia

PALLARENDA, QUEENSLAND


Home > Oceania > Australia > Queensland
Elevation: 22 feet     Latitude: 19 15S     Longitude: 146 45E

WEATHER
 
SELECT A DAY
Number of Records: 290,868;   Date Range: 7/1/96 - 7/9/14
 
SHARE

PRINT THIS DATA

[ ← Previous Day ]
WEATHER ALMANAC - FEBRUARY 13, 2013
[ Next Day → ]
[ °C ]   °F
Weather ElementAverageHighLow
Temperature83.4 °F91.4 °F (11:00 am)77 °F (3:00 am)
Dewpoint70.6 °F73.4 °F (12:30 am)68 °F (6:00 am)
Humidity64.4 %83 % (1:30 am)40 % (12:00 pm)
Barometer29.82 in29.88 in (10:00 pm)29.77 in (2:00 pm)
Wind Speed12.7 mph21.9 mph (4:30 pm)
Weather ElementAverage
Visibility7.9 mi
Wind DirectionESE (126.5 °)

Weather ElementTotal
Precipitation---
Cooling Degree Days19.2 (Base 65)
Growing Degree Days34.2 (Base 50)
Averaged from 63 records on February 13, 2013
WEATHER CONDITIONS BREAKOUT
WIND DIRECTION BREAKOUT
WEATHER BY HOUR - FEBRUARY 13, 2013
[ °C ]   °F
Local TimeTemperatureDewpointHumidityBarometerVisibilityWind DirectionWind SpeedGust SpeedPrecipitationEventsConditions
12:00 AM78.8 °F71.6 °F78 %29.83 in6.2 miSouth (180°)4.6 mphMostly Cloudy
12:30 AM80.6 °F73.4 °F79 %29.83 in6.2 miSSE (150°)5.8 mphScattered Clouds
1:00 AM80.0 °F73.0 °F74 %29.85 inSE (130°)6.9 mph
1:00 AM80.6 °F73.4 °F79 %29.83 in6.2 miSE (130°)6.9 mphScattered Clouds
1:30 AM78.8 °F73.4 °F83 %29.83 in6.2 miSSE (150°)5.8 mph
2:00 AM78.8 °F71.6 °F78 %29.83 in6.2 miSouth (170°)5.8 mphScattered Clouds
2:30 AM78.8 °F71.6 °F78 %29.80 in6.2 miSSE (160°)5.8 mphScattered Clouds
3:00 AM77.0 °F71.6 °F83 %29.80 in6.2 miSouth (180°)5.8 mph
3:00 AM77.0 °F71.0 °F78 %29.82 inSouth (180°)5.8 mph
3:30 AM77.0 °F71.6 °F83 %29.80 in6.2 miSouth (190°)5.8 mph
4:00 AM77.0 °F70.0 °F74 %29.82 inSSE (160°)5.8 mph
4:00 AM77.0 °F69.8 °F78 %29.80 in6.2 miSSE (160°)5.8 mph
4:30 AM77.0 °F69.8 °F78 %29.80 in6.2 miSSE (160°)8.1 mph
5:00 AM78.8 °F69.8 °F74 %29.80 in6.2 miSE (140°)10.4 mph
5:30 AM77.0 °F69.8 °F78 %29.80 in6.2 miSE (130°)9.2 mph
6:00 AM77.0 °F68.0 °F74 %29.80 in6.2 miSSE (150°)8.1 mphScattered Clouds
6:00 AM78.0 °F69.0 °F66 %29.82 in16.0 miSSE (150°)8.1 mphHaze
6:30 AM77.0 °F69.8 °F78 %29.83 in6.2 miSSW (200°)8.1 mphScattered Clouds
7:00 AM79.0 °F71.0 °F70 %29.85 inSSW (200°)6.9 mph
7:00 AM78.8 °F71.6 °F78 %29.83 in6.2 miSSW (200°)6.9 mphScattered Clouds
7:30 AM80.6 °F69.8 °F70 %29.83 in6.2 miSouth (190°)6.9 mphScattered Clouds
8:00 AM84.2 °F68.0 °F58 %29.86 in6.2 miSE (140°)11.5 mphScattered Clouds
8:30 AM84.2 °F68.0 °F58 %29.86 in6.2 miSSE (150°)9.2 mphScattered Clouds
9:00 AM86.0 °F68.0 °F55 %29.86 in6.2 miSouth (170°)11.5 mphPartly Cloudy
9:00 AM85.0 °F68.0 °F48 %29.86 in19.0 miSouth (170°)11.5 mphHaze
9:30 AM86.0 °F68.0 °F55 %29.86 in6.2 miSE (130°)10.4 mphPartly Cloudy
10:00 AM86.0 °F68.0 °F46 %29.87 inSSE (160°)12.7 mph
10:00 AM86.0 °F68.0 °F55 %29.86 in6.2 miSSE (160°)12.7 mphPartly Cloudy
10:30 AM87.8 °F68.0 °F52 %29.86 in6.2 miSE (130°)9.2 mphScattered Clouds
11:00 AM91.4 °F69.8 °F49 %29.83 in6.2 miESE (110°)11.5 mphScattered Clouds
11:30 AM89.6 °F68.0 °F49 %29.83 in6.2 miESE (120°)15.0 mphMostly Cloudy
12:00 PM89.6 °F68.0 °F49 %29.83 in6.2 miEast (100°)12.7 mphMostly Cloudy
12:00 PM90.0 °F69.0 °F40 %29.83 in25.0 miEast (100°)12.7 mphPartly Cloudy
12:30 PM87.8 °F69.8 °F55 %29.80 in6.2 miEast (90°)13.8 mphMostly Cloudy
1:00 PM91.0 °F71.0 °F42 %29.82 inENE (70°)17.3 mph
1:00 PM91.4 °F71.6 °F52 %29.80 in6.2 miENE (70°)17.3 mphMostly Cloudy
1:30 PM89.6 °F71.6 °F55 %29.80 in6.2 miEast (80°)19.6 mphRainLight Rain Showers
2:00 PM89.6 °F69.8 °F52 %29.77 in6.2 miEast (80°)17.3 mphScattered Clouds
2:30 PM89.6 °F69.8 °F52 %29.77 in6.2 miEast (80°)15.0 mphPartly Cloudy
3:00 PM89.6 °F69.8 °F52 %29.77 in6.2 miENE (70°)18.4 mphPartly Cloudy
3:00 PM90.0 °F70.0 °F42 %29.78 in25.0 miENE (70°)18.4 mphScattered Clouds
3:30 PM91.4 °F69.8 °F49 %29.77 in6.2 miENE (70°)18.4 mphPartly Cloudy
4:00 PM89.0 °F71.0 °F46 %29.78 inENE (70°)19.6 mph
4:00 PM89.6 °F71.6 °F55 %29.77 in6.2 miENE (70°)19.6 mphScattered Clouds
4:30 PM87.8 °F71.6 °F58 %29.77 in6.2 miEast (90°)21.9 mphScattered Clouds
5:00 PM86.0 °F71.6 °F62 %29.77 in6.2 miEast (90°)21.9 mphMostly Cloudy
5:30 PM86.0 °F71.6 °F62 %29.77 in6.2 miEast (90°)20.7 mphMostly Cloudy
6:00 PM84.2 °F69.8 °F62 %29.77 in6.2 miEast (100°)19.6 mphMostly Cloudy
6:00 PM84.0 °F71.0 °F56 %29.79 in25.0 miEast (100°)19.6 mphPartly Cloudy
6:30 PM84.2 °F69.8 °F62 %29.80 in6.2 miEast (100°)17.3 mphMostly Cloudy
7:00 PM83.0 °F71.0 °F60 %29.83 inESE (110°)19.6 mph
7:00 PM82.4 °F71.6 °F70 %29.80 in6.2 miESE (110°)19.6 mphMostly Cloudy
7:30 PM82.4 °F71.6 °F70 %29.83 in6.2 miESE (110°)18.4 mphPartly Cloudy
8:00 PM82.4 °F71.6 °F70 %29.83 in6.2 miESE (110°)17.3 mphMostly Cloudy
8:30 PM82.4 °F73.4 °F74 %29.83 in6.2 miESE (110°)13.8 mphScattered Clouds
9:00 PM82.4 °F73.4 °F74 %29.83 in6.2 miESE (110°)16.1 mphScattered Clouds
9:00 PM82.0 °F73.0 °F67 %29.85 in19.0 miESE (110°)16.1 mphScattered Clouds
9:30 PM82.4 °F73.4 °F74 %29.86 in6.2 miESE (110°)13.8 mphScattered Clouds
10:00 PM82.0 °F72.0 °F66 %29.88 inESE (120°)15.0 mph
10:00 PM82.4 °F71.6 °F70 %29.86 in6.2 miESE (120°)15.0 mphScattered Clouds
10:30 PM80.6 °F71.6 °F74 %29.86 in6.2 miSE (130°)11.5 mphPartly Cloudy
11:00 PM80.6 °F71.6 °F74 %29.86 in6.2 miEast (100°)13.8 mphScattered Clouds
11:30 PM80.6 °F71.6 °F74 %29.86 in6.2 miSE (130°)12.7 mphScattered Clouds
Hourly data recorded from YBTL, located miles away from Pallarenda, Queensland







STORIES FROM OUR PARTNERS